| time (UTC) | temp C | wind direction | speed KPH | gust KPH | rain 1hr cm | rain 24hr cm | rain mn cm | humidity % | barometer mb |
| 20260906113050 | 22 | 0 | 0.0 | 0.0 | 0.00 | 0.00 | 0.00 | 94 | 1014.3 |
| 20260906111550 | 22 | 0 | 0.0 | 0.0 | 0.00 | 0.00 | 0.00 | 93 | 1014.1 |
| 20260906110044 | 22 | 0 | 0.0 | 0.0 | 0.00 | 0.00 | 0.00 | 93 | 1013.9 |
| 20260906104544 | 22 | 0 | 0.0 | 0.0 | 0.00 | 0.00 | 0.00 | 93 | 1013.8 |
| 20260906103050 | 22 | 0 | 0.0 | 0.0 | 0.00 | 0.00 | 0.00 | 93 | 1013.7 |
| 20260906101544 | 22 | 0 | 0.0 | 0.0 | 0.00 | 0.00 | 0.00 | 93 | 1013.6 |
| 20260906100044 | 22 | 0 | 0.0 | 0.0 | 0.00 | 0.00 | 0.00 | 93 | 1013.6 |
| 20260906094545 | 23 | 0 | 0.0 | 0.0 | 0.00 | 0.00 | 0.00 | 93 | 1013.4 |
| 20260906093051 | 23 | 0 | 0.0 | 1.6 | 0.00 | 0.00 | 0.00 | 93 | 1013.7 |
| 20260906091546 | 23 | 0 | 0.0 | 0.0 | 0.00 | 0.00 | 0.00 | 93 | 1013.4 |
| 20260906090051 | 23 | 0 | 0.0 | 0.0 | 0.00 | 0.00 | 0.00 | 93 | 1013.6 |
| 20260906084545 | 23 | 0 | 0.0 | 0.0 | 0.00 | 0.00 | 0.00 | 93 | 1013.5 |
| 20260906083048 | 23 | 0 | 0.0 | 0.0 | 0.00 | 0.00 | 0.00 | 92 | 1013.6 |
| 20260906081547 | 23 | 0 | 0.0 | 0.0 | 0.00 | 0.00 | 0.00 | 93 | 1013.6 |
| 20260906080047 | 23 | 0 | 0.0 | 0.0 | 0.00 | 0.00 | 0.00 | 93 | 1013.5 |
| 20260906074542 | 23 | 0 | 0.0 | 3.2 | 0.00 | 0.00 | 0.00 | 93 | 1013.8 |
| 20260906073045 | 23 | 0 | 0.0 | 3.2 | 0.00 | 0.00 | 0.00 | 93 | 1014.1 |
| 20260906071548 | 23 | 202 | 1.6 | 3.2 | 0.00 | 0.00 | 0.00 | 92 | 1013.9 |
| 20260906070045 | 23 | 0 | 0.0 | 1.6 | 0.00 | 0.00 | 0.00 | 92 | 1013.2 |
| 20260906064550 | 23 | 0 | 0.0 | 0.0 | 0.00 | 0.00 | 0.00 | 92 | 1013.5 |
| 20260906063046 | 23 | 0 | 0.0 | 0.0 | 0.00 | 0.00 | 0.00 | 92 | 1013.1 |
| 20260906061550 | 23 | 0 | 0.0 | 0.0 | 0.00 | 0.00 | 0.00 | 92 | 1013.4 |
| 20260906060054 | 23 | 0 | 0.0 | 1.6 | 0.00 | 0.00 | 0.00 | 92 | 1013.6 |
| 20260906054549 | 23 | 0 | 0.0 | 1.6 | 0.00 | 0.00 | 0.00 | 92 | 1013.6 |
| 20260906053045 | 23 | 0 | 0.0 | 1.6 | 0.00 | 0.00 | 0.00 | 92 | 1013.9 |
| 20260906051545 | 23 | 0 | 0.0 | 0.0 | 0.00 | 0.00 | 0.00 | 92 | 1014.0 |
| 20260906050046 | 23 | 0 | 0.0 | 0.0 | 0.00 | 0.00 | 0.00 | 92 | 1014.1 |
| 20260906044546 | 23 | 0 | 0.0 | 0.0 | 0.00 | 0.00 | 0.00 | 92 | 1014.2 |
| 20260906043044 | 23 | 0 | 0.0 | 0.0 | 0.00 | 0.00 | 0.00 | 91 | 1014.5 |
| 20260906041544 | 23 | 0 | 0.0 | 0.0 | 0.00 | 0.00 | 0.00 | 91 | 1014.6 |
| 20260906040044 | 23 | 0 | 0.0 | 0.0 | 0.00 | 0.00 | 0.00 | 91 | 1014.5 |
| 20260906034559 | 23 | 0 | 0.0 | 0.0 | 0.00 | 0.00 | 0.00 | 90 | 1014.6 |
| 20260906033045 | 23 | 0 | 0.0 | 0.0 | 0.00 | 0.00 | 0.00 | 90 | 1014.4 |
| 20260906031544 | 24 | 0 | 0.0 | 0.0 | 0.00 | 0.00 | 0.00 | 89 | 1014.5 |
| 20260906030050 | 24 | 0 | 0.0 | 0.0 | 0.00 | 0.00 | 0.00 | 89 | 1014.2 |
| 20260906024554 | 24 | 0 | 0.0 | 0.0 | 0.00 | 0.00 | 0.00 | 88 | 1014.2 |
| 20260906023044 | 24 | 0 | 0.0 | 0.0 | 0.00 | 0.00 | 0.00 | 88 | 1013.8 |
| 20260906021546 | 25 | 0 | 0.0 | 0.0 | 0.00 | 0.00 | 0.00 | 87 | 1013.7 |
| 20260906020053 | 25 | 0 | 0.0 | 0.0 | 0.00 | 0.00 | 0.00 | 87 | 1013.6 |
| 20260906014549 | 25 | 0 | 0.0 | 0.0 | 0.00 | 0.00 | 0.00 | 86 | 1013.6 |
| 20260906013044 | 25 | 0 | 0.0 | 0.0 | 0.00 | 0.00 | 0.00 | 86 | 1013.6 |
| 20260906011545 | 25 | 0 | 0.0 | 0.0 | 0.00 | 0.00 | 0.00 | 86 | 1013.6 |
| 20260906010111 | 25 | 0 | 0.0 | 0.0 | 0.00 | 0.00 | 0.00 | 85 | 1013.4 |
| 20260906004553 | 26 | 0 | 0.0 | 0.0 | 0.00 | 0.00 | 0.00 | 84 | 1013.5 |
| 20260906003045 | 26 | 0 | 0.0 | 1.6 | 0.00 | 0.00 | 0.00 | 84 | 1013.5 |
| 20260906001559 | 26 | 0 | 0.0 | 0.0 | 0.00 | 0.00 | 0.00 | 83 | 1013.5 |
| 20260906000044 | 26 | 0 | 0.0 | 1.6 | 0.00 | 0.00 | 0.00 | 82 | 1013.5 |
| 20260905234542 | 27 | 0 | 0.0 | 1.6 | 0.00 | 0.00 | 0.00 | 82 | 1013.5 |
| 20260905233045 | 27 | 0 | 0.0 | 0.0 | 0.00 | 0.00 | 0.00 | 81 | 1013.3 |
| 20260905231549 | 27 | 0 | 0.0 | 1.6 | 0.00 | 0.00 | 0.00 | 80 | 1013.4 |
| 20260905230045 | 27 | 0 | 0.0 | 1.6 | 0.00 | 0.00 | 0.00 | 79 | 1013.3 |
| 20260905224546 | 27 | 0 | 0.0 | 1.6 | 0.00 | 0.00 | 0.00 | 78 | 1013.3 |
| 20260905223054 | 27 | 0 | 0.0 | 3.2 | 0.00 | 0.00 | 0.00 | 80 | 1013.3 |
| 20260905221544 | 27 | 0 | 0.0 | 0.0 | 0.00 | 0.00 | 0.00 | 80 | 1013.3 |
| 20260905220044 | 27 | 0 | 0.0 | 0.0 | 0.00 | 0.00 | 0.00 | 80 | 1013.3 |
| 20260905214549 | 27 | 0 | 0.0 | 0.0 | 0.00 | 0.00 | 0.00 | 79 | 1013.7 |
| 20260905213043 | 26 | 0 | 0.0 | 0.0 | 0.00 | 0.00 | 0.00 | 80 | 1013.8 |
| 20260905211546 | 27 | 207 | 0.0 | 3.2 | 0.00 | 0.00 | 0.00 | 80 | 1013.9 |
| 20260905210059 | 27 | 155 | 1.6 | 3.2 | 0.00 | 0.00 | 0.00 | 79 | 1013.8 |
| 20260905204547 | 27 | 0 | 0.0 | 1.6 | 0.00 | 0.00 | 0.00 | 79 | 1013.7 |
| 20260905203042 | 27 | 0 | 0.0 | 3.2 | 0.00 | 0.00 | 0.00 | 77 | 1014.0 |
| 20260905201546 | 27 | 155 | 0.0 | 3.2 | 0.00 | 0.00 | 0.00 | 78 | 1014.4 |
| 20260905200110 | 27 | 146 | 0.0 | 3.2 | 0.00 | 0.00 | 0.00 | 78 | 1014.5 |
| 20260905194544 | 27 | 147 | 1.6 | 4.8 | 0.00 | 0.00 | 0.00 | 77 | 1014.5 |
| 20260905193044 | 27 | 131 | 0.0 | 1.6 | 0.00 | 0.00 | 0.00 | 78 | 1014.6 |
| 20260905191546 | 28 | 131 | 0.0 | 1.6 | 0.00 | 0.00 | 0.00 | 77 | 1014.7 |
| 20260905190044 | 28 | 0 | 0.0 | 1.6 | 0.00 | 0.00 | 0.00 | 74 | 1014.8 |
| 20260905184603 | 29 | 0 | 0.0 | 3.2 | 0.00 | 0.00 | 0.00 | 73 | 1015.2 |
| 20260905183046 | 30 | 0 | 0.0 | 4.8 | 0.00 | 0.00 | 0.00 | 69 | 1015.1 |
| 20260905181547 | 32 | 0 | 0.0 | 4.8 | 0.00 | 0.00 | 0.00 | 66 | 1014.9 |
| 20260905180044 | 33 | 277 | 1.6 | 6.4 | 0.00 | 0.00 | 0.00 | 62 | 1015.0 |
| 20260905174547 | 33 | 0 | 1.6 | 11.3 | 0.00 | 0.00 | 0.00 | 59 | 1015.3 |
| 20260905173050 | 33 | 0 | 0.0 | 9.7 | 0.00 | 0.00 | 0.00 | 58 | 1015.0 |
| 20260905171544 | 33 | 140 | 1.6 | 6.4 | 0.00 | 0.00 | 0.00 | 61 | 1015.1 |
| 20260905170043 | 32 | 119 | 3.2 | 9.7 | 0.00 | 0.00 | 0.00 | 62 | 1015.2 |
| 20260905164547 | 32 | 113 | 1.6 | 9.7 | 0.00 | 0.00 | 0.00 | 69 | 1015.7 |
| 20260905163045 | 31 | 94 | 3.2 | 6.4 | 0.00 | 0.00 | 0.00 | 69 | 1015.7 |
| 20260905161544 | 31 | 180 | 1.6 | 4.8 | 0.00 | 0.00 | 0.00 | 71 | 1015.8 |
| 20260905160044 | 31 | 184 | 0.0 | 3.2 | 0.00 | 0.00 | 0.00 | 71 | 1015.7 |
| 20260905154551 | 30 | 0 | 0.0 | 4.8 | 0.00 | 0.00 | 0.00 | 73 | 1015.7 |
| 20260905153045 | 30 | 65 | 1.6 | 4.8 | 0.00 | 0.00 | 0.00 | 74 | 1016.0 |
| 20260905151558 | 29 | 0 | 0.0 | 4.8 | 0.00 | 0.00 | 0.00 | 75 | 1016.0 |
| 20260905150049 | 28 | 0 | 1.6 | 6.4 | 0.00 | 0.00 | 0.00 | 77 | 1016.2 |
| 20260905144547 | 28 | 131 | 1.6 | 6.4 | 0.00 | 0.00 | 0.00 | 79 | 1016.3 |
| 20260905143046 | 27 | 157 | 0.0 | 3.2 | 0.00 | 0.00 | 0.00 | 81 | 1016.2 |
| 20260905141546 | 27 | 0 | 0.0 | 4.8 | 0.00 | 0.00 | 0.00 | 82 | 1016.4 |
| 20260905140044 | 27 | 0 | 0.0 | 4.8 | 0.00 | 0.00 | 0.00 | 84 | 1016.4 |
| 20260905134542 | 27 | 0 | 0.0 | 3.2 | 0.00 | 0.00 | 0.00 | 85 | 1016.5 |
| 20260905133047 | 26 | 0 | 0.0 | 0.0 | 0.00 | 0.00 | 0.00 | 87 | 1016.6 |
| 20260905131555 | 26 | 0 | 0.0 | 0.0 | 0.00 | 0.00 | 0.00 | 89 | 1016.8 |
| 20260905130044 | 25 | 136 | 0.0 | 3.2 | 0.00 | 0.00 | 0.00 | 93 | 1016.8 |
| 20260905124544 | 25 | 136 | 0.0 | 1.6 | 0.00 | 0.00 | 0.00 | 95 | 1016.5 |
| 20260905123106 | 23 | 0 | 0.0 | 0.0 | 0.00 | 0.00 | 0.00 | 94 | 1016.6 |
| 20260905121545 | 23 | 0 | 0.0 | 0.0 | 0.00 | 0.00 | 0.00 | 94 | 1016.7 |
| 20260905120045 | 23 | 0 | 0.0 | 0.0 | 0.00 | 0.00 | 0.00 | 94 | 1016.5 |
| 20260905114546 | 23 | 0 | 0.0 | 0.0 | 0.00 | 0.00 | 0.00 | 94 | 1016.2 |